CZ-6A DEB

Satellite information

Favourite Embed

Satellite Type and Status

DEBRISIN ORBIT

Key statistics

Satellite CZ-6A DEB at a glance.

Uptime

1076

Days in orbit

Revolutions

≈ 14.4

Per day

Orbit

SSO

Sun Synchronous Orbit

Inclination

99.1

Latest

Satellite identification and parameters

Extended collection of information and parameters for CZ-6A DEB.

Object identification

Identified? True

Debris? True

Object name: CZ-6A DEB

International designator: 2022-151SC

Object number (NORAD): 54939

Object ID (CCSDS): 54939

Country: PEOPLES REPUBLIC OF CHINA (PRC)

Current information (Y/N): Y

RCS size: SMALL

Orbital parameters

Period: 100.153 minutes

Inclination: 99.0714 deg

SMA: 7143.891 km

Apoapsis: 817.513 km

Periapsis: 713.998 km

RAAN: 9.2725 deg

Eccentricy: 0.007245

Argument of periapsis: 88.0166 deg

Mean anomaly: 272.9314 deg

Mean motion: 14.37806878 rev/day

Mean motion (dot): 0.00006667 rev/day2

B* drag term: 0.0021602 1/REarth

Two-line elements (TLE)

Creation date: Oct. 22, 2025, 12:06 a.m.

Reference frame: TEME

Reference center: EARTH

Epoch: Oct. 21, 2025, 5:42 p.m. UTC

TLE line 0: 0 CZ-6A DEB

TLE line 1: 1 54939U 22151SC 25294.73767322 .00006667 00000-0 21602-2 0 9998

TLE line 2: 2 54939 99.0714 9.2725 0072450 88.0166 272.9314 14.37806878153159

Live tracking on map

Real-time ground track for satellite CZ-6A DEB.

In-orbit conjunctions

A list of the most updated potential collisions computed for object CZ-6A DEB.

Target Orbit TCA Probability of collision Miss distance Type
THORAD AGENA D DEB SSO 2025-10-03 00:37:45 0.0001227097 73.0 (m) DEBRIS
SL-8 R/B LEO 2025-09-03 08:17:46 0.0001397889 245.0 (m) ROCKET BODY
CZ-6A DEB LEO 2025-07-17 21:25:08 0.0001310531 586.0 (m) DEBRIS
COSMOS 2251 DEB LEO 2025-05-22 04:38:59 0.0002090943 82.0 (m) DEBRIS
COSMOS 2251 DEB LEO 2024-11-09 09:56:13 0.0001130493 752.0 (m) DEBRIS

Associated space launch

Chinese satellite reported for atmospheric/ocean/environmental/spatial parameter research purposes, details TBD.

CZ-6A DEB was lifted into orbit during the mission ‘Long March 6A | Yunhai 3’, on board a Long March 6A space rocket.

The launch took place on Nov. 11, 2022, 10:52 p.m. from Launch Complex 9A.

For more information about the launch, click the button.

Launch to space Long March 6A | Yunhai 3
Long March 6A | Yunhai 3

Agency: N/A

Status: Launch Successful

Launch date: Nov. 11, 2022, 10:52 p.m. UTC

Rocket: Long March 6A

Launch pad: Launch Complex 9A

Location: Taiyuan Satellite Launch Center, People's Republic of China

...

Latest news about this satellite

There are no fresh news available about this satellite. Check back as we update our databases every day.


Newsletter sign-up

Weekly statistics, charts and insights to help you stay on top of the space industry.